This demonstration page uses our WeatherBlox Daily Observations layout. Learn more.

Left ArrowRight Arrow

39.12711, -84.51439

Hourly Observations for November 2, 2016

Temp ( °F °C ) Dew Point ( °F °C ) Humidity (%) Winds ( mph kmh ) Pressure ( in mb ) Visibility ( mi km ) Precip ( " mm )
12:32 am 00:32 Clear with Mist and Fog 54 12 54 12 100 100 Calm 30.15 1021 1 1 0.00 0.00
12:47 am 00:47 Clear with Mist and Fog 54 12 54 12 100 100 Calm 30.15 1021 2 3 0.00 0.00
12:53 am 00:53 Clear with Mist and Fog 54 12.2 54 12.2 100 100 Calm 30.15 1021 5 8 0.00 0.00
1:04 am 01:04 Clear with Mist and Fog 52 11 52 11 100 100 Calm 30.15 1021 2 3 0.00 0.00
1:10 am 01:10 Clear with Mist and Fog 52 11 52 11 100 100 Calm 30.15 1021 1 1 0.00 0.00
1:34 am 01:34 Clear with Mist and Fog 54 12 54 12 100 100 Calm 30.18 1022 2 2 0.00 0.00
1:40 am 01:40 Clear with Mist and Fog 54 12 54 12 100 100 Calm 30.18 1022 3 5 0.00 0.00
1:53 am 01:53 Clear with Mist and Fog 50 10 50 10 100 100 Calm 30.16 1022 3 5 0.00 0.00
1:56 am 01:56 Clear with Mist and Fog 52 11 52 11 100 100 Calm 30.18 1022 2 2 0.00 0.00
2:05 am 02:05 Clear with Fog 52 11.1 52 11.1 100 100 Calm 30.18 1022 1 1 0.00 0.00
2:43 am 02:43 Clear with Mist and Fog 53 11.7 53 11.7 100 100 Calm 30.18 1022 2 3 0.00 0.00
2:50 am 02:50 Mostly Cloudy with Mist and Fog 52 11 52 11 100 100 Calm 30.18 1022 1 2 0.00 0.00
2:53 am 02:53 Mostly Cloudy with Fog 50 10 50 10 100 100 Calm 30.17 1022 1 1 0.00 0.00
2:57 am 02:57 Mostly Cloudy with Fog 50 10 50 10 100 100 Calm 30.18 1022 0 0 0.00 0.00
3:11 am 03:11 Mostly Cloudy with Fog 51 10.6 51 10.6 100 100 Calm 30.18 1022 0 0 0.00 0.00
3:22 am 03:22 Mostly Cloudy with Fog 52 11 52 11 100 100 Calm 30.18 1022 1 1 0.00 0.00
3:28 am 03:28 Clear with Mist and Fog 52 11 52 11 100 100 Calm 30.18 1022 1 2 0.00 0.00
3:46 am 03:46 Clear with Fog 52 11 52 11 100 100 Calm 30.21 1023 1 1 0.00 0.00
3:53 am 03:53 Clear with Fog 51 10.6 51 10.6 100 100 Calm 30.19 1022 1 1 0.00 0.00
4:06 am 04:06 Clear with Mist and Fog 50 10 50 10 100 100 Calm 30.21 1023 3 4 0.00 0.00
4:13 am 04:13 Clear with Mist and Fog 50 10 50 10 100 100 Calm 30.21 1023 3 5 0.00 0.00
4:19 am 04:19 Clear with Mist and Fog 50 10 50 10 100 100 Calm 30.21 1023 2 3 0.00 0.00
4:28 am 04:28 Clear with Fog 49 9.4 49 9.4 100 100 Calm 30.21 1023 0 0 0.00 0.00
4:39 am 04:39 Mostly Cloudy with Fog 50 10 50 10 100 100 Calm 30.21 1023 0 0 0.00 0.00
4:48 am 04:48 Clear with Fog 48 9 48 9 100 100 Calm 30.21 1023 1 1 0.00 0.00
4:49 am 04:49 Clear with Fog 48 9 48 9 100 100 Calm 30.21 1023 1 1 0.00 0.00
4:58 am 04:58 Mostly Cloudy with Mist and Fog 50 10 50 10 100 100 Calm 30.21 1023 1 2 0.00 0.00
5:09 am 05:09 Mostly Cloudy with Fog 50 10 50 10 100 100 Calm 30.21 1023 1 1 0.00 0.00
5:34 am 05:34 Clear with Mist and Fog 50 10 50 10 100 100 Calm 30.21 1023 1 1 0.00 0.00
5:42 am 05:42 Clear with Mist and Fog 50 10 50 10 100 100 Calm 30.21 1023 2 3 0.00 0.00
5:53 am 05:53 Clear with Mist and Fog 50 10 50 10 100 100 Calm 30.21 1023 4 6 0.00 0.00
6:08 am 06:08 Partly Cloudy with Mist and Fog 48 9 48 9 100 100 Calm 30.21 1023 3 4 0.00 0.00
6:10 am 06:10 Mostly Cloudy with Mist and Fog 49 9.4 49 9.4 100 100 Calm 30.21 1023 1 1 0.00 0.00
6:20 am 06:20 Mostly Cloudy with Fog 48 9 48 9 100 100 Calm 30.21 1023 0 0 0.00 0.00
6:31 am 06:31 Mostly Cloudy with Mist and Fog 49 9.4 49 9.4 100 100 Calm 30.24 1024 1 1 0.00 0.00
6:43 am 06:43 Clear with Fog 49 9.4 49 9.4 100 100 Calm 30.24 1024 1 1 0.00 0.00
6:53 am 06:53 Mostly Clear with Patchy Fog 50 10 50 10 100 100 Calm 30.22 1023 3 5 0.00 0.00
7:53 am 07:53 Clear with Patchy Fog 50 10 50 10 100 100 Calm 30.24 1024 6 10 0.00 0.00
8:53 am 08:53 Sunny 50 10 50 10 100 100 Calm 30.25 1024 8 13 0.00 0.00
9:53 am 09:53 Sunny 58 14.4 58 14.4 100 100 Calm 30.27 1025 10 16 0.00 0.00
10:53 am 10:53 Sunny 67 19.4 60 15.6 79 79 SSW 5 7 30.26 1025 10 16 0.00 0.00
11:53 am 11:53 Sunny 72 22.2 59 15 64 64 S 7 11 30.25 1024 10 16 0.00 0.00
12:53 pm 12:53 Sunny 75 23.9 58 14.4 55 55 SSW 10 17 30.23 1024 10 16 0.00 0.00
1:53 pm 13:53 Sunny 78 25.6 58 14.4 50 50 SW 7 11 30.22 1023 10 16 0.00 0.00
2:53 pm 14:53 Sunny 78 25.6 58 14.4 50 50 SSW 14 22 30.20 1023 10 16 0.00 0.00
3:53 pm 15:53 Sunny 78 25.6 58 14.4 50 50 SSW 8 13 30.18 1022 10 16 0.00 0.00
4:53 pm 16:53 Sunny 78 25.6 56 13.3 47 47 SW 14 22 30.18 1022 10 16 0.00 0.00
5:53 pm 17:53 Sunny 74 23.3 56 13.3 54 54 SW 9 15 30.18 1022 10 16 0.00 0.00
6:53 pm 18:53 Clear 69 20.6 57 13.9 66 66 SSW 6 9 30.18 1022 10 16 0.00 0.00
7:53 pm 19:53 Clear 67 19.4 58 14.4 73 73 SSW 7 11 30.19 1022 10 16 0.00 0.00
8:53 pm 20:53 Clear 69 20.6 57 13.9 66 66 SSW 9 15 30.18 1022 10 16 0.00 0.00
9:53 pm 21:53 Partly Cloudy 69 20.6 57 13.9 66 66 SSW 12 19 30.16 1022 10 16 0.00 0.00
10:53 pm 22:53 Clear 70 21.1 57 13.9 64 64 SW 9 15 30.16 1021 10 16 0.00 0.03
11:53 pm 23:53 Clear 66 18.9 57 13.9 73 73 SW 6 9 30.18 1022 10 16 0.00 0.00

Powered by AerisWeather